Список аэропортов
Фактическая погода:

21 января, 13:00
Температура: +15°C (+15.0*)
Ветер: перем. 1 м/с
Давление: *755 мм
Без существ. явл.
Время (МСК)Темп. СВетерВлажностьДавлениеОблачностьОсадки
09:00+13З, 7 м/с48%1005 гПамалооблачно
10:00+14З, 8 м/с41%1006 гПамалооблачно
11:00+12СВ, 3 м/с51%1007 гПас прояснениями
12:00+13СВ, 7 м/с69%1008 гПас прояснениями
13:00+14СВ, 5 м/с70%1008 гПамалооблачно
14:00+15ЮВ, 1 м/с64%1008 гПамалооблачно
15:00+14Ю, 2 м/с70%1009 гПаоблачно
16:00+14ЮВ, 1 м/с70%1009 гПамалооблачно
17:00+14В, 2 м/с66%1009 гПаоблачно
18:00+14В, 3 м/с60%1010 гПаоблачно
19:00+14В, 3 м/с58%1011 гПас прояснениями
20:00+14СВ, 3 м/с57%1012 гПаоблачно
21:00+14СВ, 5 м/с58%1012 гПаоблачно
22:00+13СВ, 4 м/с54%1013 гПаоблачно
23:00+13СЗ, 3 м/с52%1014 гПаоблачно
22 января
00:00+12СЗ, 3 м/с55%1014 гПаоблачно
01:00+12С, 3 м/с57%1015 гПамалооблачно
02:00+11С, 3 м/с60%1015 гПас прояснениями
03:00+11С, 2 м/с58%1015 гПаоблачно
04:00+11СВ, 3 м/с58%1015 гПаоблачно
05:00+11С, 2 м/с60%1015 гПаоблачно
06:00+11СВ, 1 м/с61%1014 гПаоблачно
07:00+12В, 2 м/с62%1014 гПаоблачно
08:00+12В, 3 м/с64%1014 гПаоблачно
09:00+12В, 3 м/с68%1014 гПаоблачно
10:00+12В, 5 м/с72%1014 гПаоблачносл. дождь
11:00+11В, 4 м/с73%1015 гПаоблачносл. дождь
12:00+11В, 3 м/с72%1015 гПаоблачносл. дождь
13:00+11В, 2 м/с74%1015 гПаоблачносл. дождь
14:00+11ЮВ, 3 м/с74%1014 гПаоблачно
15:00+11В, 4 м/с72%1014 гПаоблачно
16:00+11В, 3 м/с70%1014 гПамалооблачно
17:00+11ЮВ, 2 м/с72%1013 гПас прояснениями
18:00+11ЮВ, 3 м/с74%1013 гПаоблачно
19:00+12Ю, 3 м/с78%1013 гПаясно
20:00+13ЮЗ, 1 м/с71%1013 гПамалооблачно
21:00+14З, 4 м/с62%1013 гПаясно
22:00+14З, 7 м/с61%1013 гПаясно
23:00+14З, 7 м/с63%1013 гПаясно
23 января
00:00+14ЮЗ, 7 м/с63%1013 гПаясно
01:00+14З, 6 м/с59%1013 гПаясно
02:00+13З, 3 м/с59%1013 гПаясно
03:00+12С, 3 м/с63%1014 гПаясно
04:00+12СВ, 5 м/с76%1016 гПаясно
05:00+12СВ, 2 м/с76%1016 гПаясно
06:00+12СЗ, 1 м/с70%1016 гПамалооблачно
07:00+12З, 2 м/с72%1017 гПамалооблачно
08:00+11З, 1 м/с73%1018 гПамалооблачно
09:00+11СЗ, 1 м/с72%1018 гПамалооблачно